z/d,0,0,50,50,100,100,200,200,300,300,400,400,500,500,750,750,1000,1000,2000,2000,3000,3000,4000,4000,4700,4700
2016.08.14-01:00,1.27,75.24,1.08,76.37,1.08,79.60,1.05,74.73,1.01,75.06,.92,79.23,.81,76.04,.61,77.02,.50,70.85,.37,56.96,.05,9.46,.03,357.67,.02,270.00
2016.08.14-02:00,1.21,76.84,1.04,76.56,1.04,79.10,1.06,74.18,1.03,75.03,.93,78.96,.83,76.07,.61,79.08,.49,73.00,.37,56.98,.06,8.99,.04,3.58,.02,270.00
2016.08.14-03:00,1.15,77.43,1.01,76.77,1.01,77.64,1.08,73.81,1.04,75.24,.93,78.62,.85,75.86,.60,79.64,.48,74.12,.39,57.53,.08,15.91,.04,18.21,.01,270.00
2016.08.14-04:00,1.12,78.36,.99,76.93,1.00,75.56,1.10,73.73,1.06,75.76,.94,78.32,.87,75.48,.60,78.67,.48,73.61,.40,58.43,.09,23.96,.05,31.43,.01,270.00
2016.08.14-05:00,1.11,79.63,.99,76.84,1.02,73.42,1.12,73.91,1.07,76.47,.94,77.97,.88,75.04,.60,76.77,.49,71.82,.42,59.72,.11,31.58,.06,41.05,.01,270.00
2016.08.14-06:00,1.10,80.43,1.00,76.39,1.06,71.82,1.15,74.27,1.08,77.09,.94,77.34,.89,74.58,.61,74.71,.50,69.49,.44,61.06,.13,37.86,.07,46.47,.00,270.00
2016.08.14-07:00,1.08,80.15,1.03,75.81,1.11,71.20,1.17,74.82,1.08,77.45,.94,76.28,.89,74.20,.61,73.20,.51,67.46,.44,62.20,.15,42.67,.08,48.86,.00,270.00
2016.08.14-08:00,1.05,77.99,1.05,75.25,1.15,71.68,1.18,75.60,1.07,77.54,.93,74.96,.88,73.98,.62,72.57,.53,66.08,.44,62.79,.15,46.01,.08,48.64,.00,270.00
2016.08.14-09:00,1.02,74.55,1.07,74.95,1.18,73.17,1.18,76.78,1.06,77.62,.93,73.80,.88,74.13,.61,72.87,.54,65.44,.43,62.74,.15,48.17,.07,46.09,.00,270.00
2016.08.14-10:00,1.03,71.42,1.09,74.83,1.19,75.14,1.17,78.12,1.05,77.69,.93,72.97,.87,74.58,.60,73.96,.54,65.64,.41,62.10,.14,49.31,.07,40.34,.01,270.00
2016.08.14-11:00,1.07,69.31,1.09,74.75,1.18,76.88,1.15,79.24,1.03,77.58,.93,72.45,.86,75.09,.59,75.72,.54,66.92,.39,61.04,.13,49.41,.06,29.79,.01,270.00
2016.08.14-12:00,1.11,67.85,1.07,74.76,1.15,78.02,1.13,79.99,1.02,77.33,.94,72.38,.85,75.61,.57,77.83,.53,69.38,.37,59.79,.11,48.64,.05,14.12,.02,270.00
2016.08.14-13:00,1.16,67.19,1.05,74.97,1.11,78.48,1.10,80.40,1.01,77.08,.95,72.85,.85,76.08,.55,79.36,.52,72.29,.36,58.43,.09,47.05,.05,356.64,.02,270.00
2016.08.14-14:00,1.18,67.81,1.01,75.47,1.07,78.41,1.07,80.69,1.01,77.10,.96,73.91,.86,76.65,.53,79.49,.51,74.81,.36,57.57,.08,47.10,.05,345.09,.02,270.00
2016.08.14-15:00,1.20,68.79,.98,76.14,1.03,77.83,1.05,80.78,1.01,77.24,.97,75.23,.86,77.16,.52,77.72,.49,76.12,.37,57.43,.07,49.03,.05,341.11,.02,270.00
2016.08.14-16:00,1.19,70.54,.95,77.20,1.02,77.08,1.03,80.68,1.00,77.38,.98,76.47,.86,77.42,.51,74.52,.48,76.20,.38,58.49,.07,53.59,.04,345.37,.02,270.00
2016.08.14-17:00,1.17,73.03,.94,78.12,1.02,76.20,1.02,80.17,1.01,77.19,.98,77.24,.85,77.19,.52,70.75,.47,75.14,.40,60.33,.07,57.81,.04,357.12,.01,270.00
2016.08.14-18:00,1.13,76.18,.95,78.42,1.04,75.47,1.02,79.42,1.01,76.81,.98,77.70,.85,76.80,.54,67.92,.47,73.67,.41,62.61,.07,60.09,.05,11.17,.01,270.00
2016.08.14-19:00,1.15,79.30,.97,78.35,1.07,75.36,1.02,78.63,1.02,76.40,.97,77.92,.84,76.41,.56,66.32,.48,71.99,.41,64.80,.07,59.40,.05,21.42,.01,270.00
2016.08.14-20:00,1.17,82.93,.99,78.61,1.09,76.27,1.02,77.95,1.02,76.08,.96,77.91,.83,76.04,.58,65.67,.48,70.15,.41,66.76,.07,57.42,.05,28.92,.01,270.00
2016.08.14-21:00,1.17,86.38,1.01,79.47,1.11,78.10,1.02,77.40,1.02,76.02,.94,77.82,.82,75.95,.59,66.13,.49,68.67,.39,68.21,.06,53.05,.05,32.66,.01,270.00
2016.08.14-22:00,1.14,88.91,1.01,80.55,1.11,80.16,1.02,76.80,1.02,76.23,.93,77.82,.82,76.33,.60,67.87,.50,68.09,.38,68.87,.05,44.33,.04,33.17,.01,270.00
2016.08.14-23:00,1.08,90.93,1.00,81.80,1.09,81.96,1.02,76.21,1.02,76.81,.92,78.05,.81,77.17,.60,70.69,.50,68.69,.35,68.71,.05,29.62,.03,27.65,.01,270.00
2016.08.14-24:00,1.00,92.69,.97,83.36,1.06,83.24,1.03,75.75,1.02,77.61,.91,78.28,.80,77.98,.60,73.90,.49,70.36,.33,67.92,.05,12.96,.02,9.13,.02,270.00
2016.08.15-01:00,.90,94.05,.93,85.20,1.02,83.80,1.04,75.44,1.01,78.34,.91,78.20,.80,78.23,.59,76.59,.49,72.60,.32,66.91,.05,2.53,.01,328.41,.02,270.00
2016.08.15-02:00,.80,95.28,.86,87.12,.97,83.69,1.05,75.54,1.01,79.00,.92,77.93,.81,78.03,.59,78.24,.49,74.76,.32,66.33,.06,2.16,.02,301.66,.02,270.00
2016.08.15-03:00,.71,96.04,.79,88.25,.94,82.67,1.07,75.91,1.00,79.21,.93,77.31,.81,77.34,.59,78.45,.49,76.06,.33,66.15,.07,12.53,.02,305.57,.02,270.00
2016.08.15-04:00,.66,97.22,.73,88.42,.92,80.98,1.09,76.42,1.00,78.78,.94,76.36,.82,76.34,.59,77.59,.49,76.44,.35,66.42,.08,26.35,.01,337.54,.02,270.00
2016.08.15-05:00,.63,99.10,.70,87.72,.93,79.11,1.10,76.86,1.00,77.65,.95,75.14,.83,75.15,.60,76.12,.49,75.88,.37,67.05,.10,39.15,.02,26.41,.02,270.00
2016.08.15-06:00,.63,101.76,.71,86.53,.95,77.70,1.12,77.24,1.02,76.24,.97,74.12,.85,74.13,.61,74.64,.51,74.47,.39,67.89,.12,48.50,.04,45.31,.01,270.00
2016.08.15-07:00,.62,104.71,.72,85.19,.98,76.97,1.13,77.48,1.03,74.93,.99,73.56,.86,73.50,.62,73.73,.52,72.72,.41,68.97,.14,54.47,.06,49.82,.01,270.00
2016.08.15-08:00,.63,107.02,.75,84.06,1.01,76.86,1.14,77.55,1.05,74.01,1.01,73.56,.88,73.27,.64,73.67,.53,71.15,.42,70.19,.15,58.21,.07,49.73,.00,270.00
2016.08.15-09:00,.63,108.90,.77,83.99,1.03,77.48,1.14,77.70,1.07,73.74,1.03,74.13,.88,73.42,.64,74.39,.54,70.04,.42,71.25,.16,60.17,.07,46.68,.00,270.00
2016.08.15-10:00,.61,110.18,.78,85.24,1.04,78.50,1.13,77.89,1.08,73.98,1.03,74.89,.88,73.58,.63,75.42,.54,69.44,.41,72.15,.15,61.12,.07,41.60,.00,270.00
2016.08.15-11:00,.58,112.70,.77,87.55,1.03,79.56,1.12,78.10,1.09,74.62,1.02,75.69,.87,73.73,.61,76.68,.54,69.78,.39,73.01,.13,61.54,.07,33.51,.01,270.00
2016.08.15-12:00,.54,116.29,.72,90.36,1.00,80.29,1.11,78.31,1.09,75.47,1.02,76.41,.87,73.85,.59,77.99,.53,71.13,.36,73.57,.11,61.10,.05,20.31,.01,270.00
2016.08.15-13:00,.49,121.98,.65,93.36,.97,80.72,1.10,78.63,1.09,76.40,1.01,77.02,.88,74.03,.57,79.13,.52,73.32,.34,73.76,.08,59.56,.05,1.18,.02,270.00
2016.08.15-14:00,.44,131.01,.57,96.12,.93,80.96,1.08,79.12,1.08,77.30,1.00,77.53,.89,74.33,.55,79.62,.51,75.80,.33,73.84,.06,57.16,.04,341.98,.02,270.00
2016.08.15-15:00,.40,139.82,.49,97.62,.90,80.89,1.07,79.62,1.08,78.01,.99,77.94,.89,74.76,.54,78.77,.50,77.59,.32,73.98,.05,53.95,.04,330.38,.02,270.00
2016.08.15-16:00,.39,147.22,.43,97.13,.88,80.59,1.06,79.94,1.07,78.45,.98,78.25,.90,75.30,.52,76.33,.49,78.15,.32,74.50,.04,53.10,.04,331.06,.02,270.00
2016.08.15-17:00,.40,151.22,.41,94.71,.88,80.21,1.05,79.81,1.07,78.51,.98,78.31,.90,75.86,.52,72.81,.48,77.59,.33,75.44,.05,55.50,.03,349.24,.02,270.00
2016.08.15-18:00,.40,154.49,.42,91.96,.88,79.94,1.04,79.18,1.06,78.26,.97,78.06,.91,76.39,.53,69.28,.48,76.33,.34,76.52,.06,57.47,.03,18.98,.01,270.00
2016.08.15-19:00,.41,155.53,.45,90.62,.89,79.86,1.03,78.19,1.05,77.82,.96,77.47,.90,76.81,.55,66.74,.49,74.95,.35,77.58,.07,58.38,.04,39.84,.01,270.00
2016.08.15-20:00,.41,160.06,.47,90.90,.89,79.89,1.03,77.00,1.05,77.30,.96,76.61,.90,77.04,.58,65.53,.50,73.68,.36,78.61,.08,58.29,.05,50.14,.00,270.00
2016.08.15-21:00,.41,165.79,.47,92.27,.88,80.01,1.03,75.90,1.05,76.95,.96,75.79,.90,77.29,.61,65.69,.51,72.68,.36,79.66,.08,56.59,.05,53.79,.00,270.00
2016.08.15-22:00,.40,171.77,.46,93.68,.87,80.06,1.04,75.02,1.05,76.78,.95,75.08,.89,77.66,.62,67.11,.52,72.24,.35,80.80,.07,52.65,.04,52.28,.01,270.00
2016.08.15-23:00,.36,179.76,.43,94.40,.87,80.03,1.05,74.47,1.05,76.72,.96,74.44,.87,78.12,.63,69.58,.52,72.66,.33,81.94,.06,44.78,.03,41.00,.01,270.00
2016.08.15-24:00,.31,189.61,.39,94.42,.86,80.15,1.06,74.35,1.05,76.70,.96,73.84,.86,78.51,.63,72.53,.51,73.87,.31,82.65,.05,32.23,.01,356.94,.02,270.00
2016.08.16-01:00,.25,200.43,.35,93.87,.84,80.58,1.07,74.69,1.05,76.69,.96,73.33,.85,78.70,.63,75.32,.50,75.53,.29,82.65,.05,18.52,.02,292.48,.03,270.00
2016.08.16-02:00,.22,216.33,.31,92.50,.82,81.09,1.07,75.32,1.05,76.55,.98,72.89,.84,78.48,.62,77.33,.49,77.21,.27,81.98,.05,13.56,.03,272.52,.03,270.00
2016.08.16-03:00,.21,232.98,.27,89.06,.80,81.26,1.08,75.93,1.06,76.21,1.00,72.51,.84,77.72,.61,78.12,.49,78.42,.27,80.98,.05,21.26,.03,267.43,.03,270.00
2016.08.16-04:00,.20,244.67,.25,82.68,.79,80.75,1.09,76.35,1.07,75.74,1.02,72.36,.85,76.56,.61,77.71,.48,78.85,.29,80.11,.06,35.73,.02,272.56,.03,270.00
2016.08.16-05:00,.17,251.08,.25,75.26,.78,79.45,1.10,76.37,1.09,75.18,1.05,72.42,.86,75.09,.61,76.40,.49,78.36,.31,79.51,.08,49.16,.01,349.24,.02,270.00
2016.08.16-06:00,.12,248.60,.29,71.15,.78,77.86,1.11,76.08,1.11,74.64,1.08,72.73,.87,73.57,.63,74.93,.51,77.21,.34,79.12,.11,58.13,.03,48.54,.01,270.00
2016.08.16-07:00,.05,217.93,.35,70.94,.80,76.52,1.12,75.62,1.13,74.25,1.10,73.31,.90,72.29,.65,73.90,.53,75.77,.37,78.92,.14,63.62,.05,53.87,.01,270.00
2016.08.16-08:00,.08,115.07,.40,72.44,.82,75.57,1.13,75.00,1.15,73.98,1.12,74.08,.92,71.41,.67,73.43,.55,74.26,.40,78.94,.16,67.10,.07,53.97,.00,270.00
2016.08.16-09:00,.17,101.01,.45,74.57,.83,75.14,1.14,74.36,1.17,73.88,1.14,74.97,.94,70.94,.68,73.37,.56,72.86,.41,79.25,.17,69.60,.09,52.72,.00,90.00
2016.08.16-10:00,.23,103.36,.47,76.91,.84,75.08,1.14,73.84,1.18,73.99,1.13,75.87,.96,70.82,.68,73.50,.57,71.69,.41,79.85,.16,71.53,.09,50.27,.00,90.00
2016.08.16-11:00,.25,109.67,.46,78.90,.83,74.90,1.14,73.53,1.18,74.36,1.12,76.79,.97,71.05,.67,73.91,.57,71.11,.40,80.87,.14,73.20,.08,45.86,.00,270.00
2016.08.16-12:00,.22,120.88,.42,80.25,.81,74.30,1.14,73.55,1.18,75.02,1.10,77.67,.97,71.62,.66,74.69,.57,71.50,.38,82.36,.11,74.46,.07,37.29,.00,270.00
2016.08.16-13:00,.19,140.35,.36,80.40,.80,73.30,1.14,74.00,1.18,75.86,1.08,78.33,.98,72.38,.64,75.69,.56,72.95,.35,84.21,.08,74.61,.05,22.35,.01,270.00
2016.08.16-14:00,.18,165.43,.29,77.94,.79,72.29,1.14,74.91,1.17,76.77,1.06,78.63,.98,73.18,.62,76.48,.55,75.09,.33,86.19,.05,72.08,.04,2.78,.02,270.00
2016.08.16-15:00,.18,190.12,.25,71.09,.79,71.65,1.13,76.13,1.15,77.61,1.03,78.53,.98,73.99,.60,76.59,.54,77.33,.31,87.89,.03,62.18,.04,347.16,.02,270.00
2016.08.16-16:00,.21,209.68,.24,61.38,.80,71.56,1.13,77.36,1.14,78.26,1.01,78.15,.98,74.91,.59,75.89,.53,79.23,.30,88.91,.02,45.60,.03,343.77,.02,270.00
2016.08.16-17:00,.24,220.37,.26,53.92,.82,71.93,1.12,78.24,1.12,78.51,.99,77.58,.98,75.88,.59,74.62,.53,80.58,.30,89.15,.03,41.29,.03,358.56,.01,270.00
2016.08.16-18:00,.25,227.30,.30,51.55,.84,72.71,1.11,78.61,1.11,78.32,.99,76.84,.97,76.72,.60,73.15,.54,81.27,.31,88.81,.05,46.48,.03,29.11,.01,270.00
2016.08.16-19:00,.24,244.20,.34,53.02,.85,73.85,1.10,78.56,1.10,77.78,.99,76.02,.97,77.30,.63,71.84,.54,81.31,.33,88.17,.07,51.39,.04,50.03,.00,270.00
2016.08.16-20:00,.22,248.83,.39,56.01,.86,75.12,1.09,78.17,1.09,77.02,1.00,75.23,.97,77.53,.65,70.89,.55,80.81,.34,87.62,.09,54.87,.06,59.13,.00,90.00
2016.08.16-21:00,.21,261.21,.42,58.80,.85,76.28,1.08,77.57,1.09,76.25,1.01,74.65,.97,77.55,.67,70.46,.55,79.94,.35,87.42,.10,57.61,.06,63.45,.00,90.00
2016.08.16-22:00,.22,283.36,.45,60.28,.84,76.99,1.07,76.84,1.09,75.66,1.01,74.41,.96,77.59,.69,70.80,.54,79.05,.34,87.64,.11,59.75,.06,65.75,.00,90.00
2016.08.16-23:00,.27,299.75,.46,60.64,.82,77.07,1.06,76.11,1.09,75.41,1.02,74.54,.95,77.85,.70,72.07,.53,78.53,.33,88.25,.10,61.24,.05,67.01,.00,270.00
2016.08.16-24:00,.32,313.83,.47,60.70,.80,76.53,1.06,75.46,1.10,75.49,1.03,74.92,.94,78.32,.70,74.09,.52,78.52,.31,89.16,.08,62.14,.03,67.67,.01,270.00
2016.08.17-01:00,.37,328.12,.48,61.52,.79,75.65,1.06,74.99,1.10,75.79,1.03,75.33,.92,78.82,.68,76.51,.50,79.06,.29,90.24,.06,61.95,.01,63.41,.02,270.00
2016.08.17-02:00,.39,344.39,.48,63.16,.77,74.58,1.06,74.62,1.10,76.01,1.02,75.46,.91,79.02,.67,78.91,.49,80.06,.27,91.34,.04,60.71,.01,254.74,.02,270.00
2016.08.17-03:00,.40,3.19,.47,65.22,.77,73.60,1.07,74.33,1.10,76.00,1.02,75.20,.89,78.71,.65,80.82,.48,81.11,.27,91.98,.03,59.40,.03,255.38,.03,270.00
2016.08.17-04:00,.41,21.82,.48,67.25,.78,73.06,1.08,74.27,1.10,75.83,1.02,74.75,.89,77.97,.64,81.92,.48,81.74,.27,91.79,.04,61.67,.03,259.55,.03,270.00
2016.08.17-05:00,.42,37.45,.48,68.69,.81,72.92,1.09,74.37,1.11,75.49,1.03,74.30,.89,76.96,.63,82.06,.49,81.66,.29,90.66,.05,65.01,.02,279.29,.02,270.00
2016.08.17-06:00,.43,50.77,.50,69.84,.83,73.04,1.11,74.56,1.12,75.04,1.05,73.99,.90,75.86,.64,81.28,.50,80.81,.32,88.99,.08,67.70,.02,24.69,.02,270.00
2016.08.17-07:00,.45,62.56,.52,71.39,.86,73.33,1.14,74.80,1.14,74.57,1.07,73.90,.92,74.81,.65,79.80,.53,79.29,.35,87.32,.12,69.65,.04,49.52,.01,270.00
2016.08.17-08:00,.50,73.28,.56,73.79,.90,73.83,1.16,75.07,1.16,74.25,1.10,74.10,.95,73.97,.67,78.02,.55,77.36,.37,85.95,.15,71.06,.08,53.98,.00,90.00
2016.08.17-09:00,.56,81.40,.60,76.42,.92,74.38,1.17,75.26,1.19,74.11,1.12,74.50,.97,73.40,.68,76.34,.58,75.39,.39,85.19,.17,72.42,.10,54.98,.01,90.00
2016.08.17-10:00,.62,87.15,.61,78.87,.93,74.95,1.18,75.35,1.20,74.20,1.13,75.07,.99,73.13,.69,74.95,.60,73.69,.40,85.06,.17,73.77,.12,54.47,.01,90.00
2016.08.17-11:00,.65,91.35,.60,80.75,.92,75.42,1.17,75.31,1.20,74.51,1.13,75.72,.99,73.16,.69,73.98,.61,72.62,.39,85.64,.16,75.28,.12,52.81,.01,90.00
2016.08.17-12:00,.66,95.27,.56,81.88,.90,75.72,1.16,75.22,1.20,75.03,1.11,76.40,.99,73.49,.69,73.62,.61,72.65,.37,86.88,.14,76.86,.11,49.39,.01,90.00
2016.08.17-13:00,.63,100.24,.51,81.90,.87,75.76,1.15,75.12,1.20,75.66,1.10,76.97,.99,74.03,.68,73.90,.61,74.02,.35,88.67,.10,78.48,.09,43.42,.00,90.00
2016.08.17-14:00,.56,106.54,.45,80.49,.84,75.62,1.14,75.18,1.19,76.32,1.08,77.38,.98,74.68,.66,74.68,.60,76.64,.32,90.68,.07,79.39,.06,33.72,.00,270.00
2016.08.17-15:00,.49,113.19,.41,77.24,.83,75.40,1.13,75.45,1.17,76.91,1.06,77.60,.97,75.34,.65,75.61,.59,80.05,.29,92.43,.04,76.17,.05,21.37,.01,270.00
2016.08.17-16:00,.43,119.78,.39,72.44,.82,75.24,1.12,75.93,1.15,77.35,1.04,77.68,.96,75.95,.63,76.24,.58,83.51,.28,93.41,.02,57.83,.03,13.31,.01,270.00
2016.08.17-17:00,.38,126.33,.40,67.82,.83,75.28,1.12,76.57,1.14,77.65,1.03,77.73,.95,76.48,.63,76.25,.57,86.31,.28,93.29,.02,38.01,.03,20.42,.01,270.00
2016.08.17-18:00,.27,134.89,.42,65.02,.84,75.49,1.12,77.14,1.13,77.76,1.03,77.69,.95,76.75,.64,75.53,.56,87.93,.30,92.37,.04,41.94,.03,43.54,.00,270.00
2016.08.17-19:00,.20,141.35,.45,64.39,.86,75.71,1.11,77.44,1.12,77.64,1.02,77.44,.95,76.58,.65,74.24,.55,88.14,.32,91.12,.07,49.55,.05,60.55,.00,90.00
2016.08.17-20:00,.18,143.24,.49,65.61,.87,76.00,1.11,77.50,1.12,77.45,1.02,77.00,.96,76.03,.68,72.85,.55,87.06,.34,90.08,.10,55.14,.07,67.69,.01,90.00
2016.08.17-21:00,.17,140.11,.54,67.93,.88,76.38,1.11,77.39,1.12,77.32,1.03,76.44,.96,75.39,.70,71.81,.54,85.10,.36,89.58,.12,59.17,.08,70.45,.01,90.00
2016.08.17-22:00,.15,134.55,.57,70.38,.88,76.65,1.10,77.06,1.12,77.23,1.02,75.82,.97,74.89,.73,71.40,.54,82.80,.36,89.71,.13,62.45,.09,71.48,.01,90.00
2016.08.17-23:00,.12,126.78,.59,72.56,.88,76.73,1.09,76.48,1.11,77.16,1.02,75.31,.97,74.84,.75,71.97,.54,80.93,.36,90.54,.13,65.35,.08,71.34,.01,90.00
2016.08.17-24:00,.08,111.11,.59,74.39,.87,76.68,1.08,75.68,1.10,77.06,1.02,74.97,.97,75.31,.76,73.64,.53,80.04,.34,92.12,.12,68.10,.06,68.94,.00,90.00
2016.08.18-01:00,.05,69.47,.58,75.90,.85,76.65,1.08,74.84,1.10,76.90,1.02,74.73,.97,76.11,.75,76.17,.53,80.24,.31,94.38,.09,71.12,.03,58.46,.01,270.00
2016.08.18-02:00,.05,11.47,.55,77.09,.84,76.68,1.08,74.13,1.09,76.60,1.02,74.47,.96,76.93,.74,79.06,.52,81.24,.29,97.14,.07,75.86,.01,353.54,.02,270.00
2016.08.18-03:00,.05,336.32,.53,77.76,.83,76.67,1.08,73.76,1.09,76.15,1.02,74.13,.95,77.58,.72,81.84,.51,82.48,.27,99.58,.05,83.65,.02,294.73,.02,270.00
2016.08.18-04:00,.04,291.82,.51,78.00,.83,76.68,1.10,73.87,1.09,75.65,1.02,73.91,.94,78.11,.70,84.16,.50,83.44,.27,100.66,.04,90.46,.03,291.35,.02,270.00
2016.08.18-05:00,.05,256.15,.50,77.66,.85,76.60,1.12,74.30,1.10,75.11,1.04,73.86,.94,78.48,.68,85.69,.50,83.78,.27,99.86,.05,89.08,.03,309.64,.02,270.00
2016.08.18-06:00,.06,240.81,.50,76.91,.86,76.41,1.14,74.86,1.12,74.59,1.06,73.98,.95,78.57,.68,86.15,.51,83.33,.29,97.51,.07,83.41,.03,4.44,.01,270.00
2016.08.18-07:00,.06,218.12,.51,76.38,.89,76.13,1.16,75.44,1.15,74.20,1.09,74.25,.96,78.28,.68,85.45,.54,82.06,.32,94.52,.10,79.01,.05,40.48,.00,270.00
2016.08.18-08:00,.08,188.29,.53,76.60,.91,75.73,1.18,75.92,1.18,74.00,1.13,74.60,.98,77.64,.69,83.89,.57,80.27,.35,91.68,.13,76.43,.09,52.11,.01,90.00
2016.08.18-09:00,.13,173.89,.57,78.02,.94,75.40,1.20,76.43,1.21,74.18,1.16,75.17,1.00,76.93,.70,81.99,.60,78.50,.37,89.40,.15,74.73,.12,56.19,.02,90.00
2016.08.18-10:00,.18,173.24,.59,79.75,.96,75.01,1.21,76.87,1.23,74.63,1.17,75.85,1.01,76.26,.71,80.07,.63,77.09,.39,87.95,.17,73.72,.15,57.78,.02,90.00
2016.08.18-11:00,.21,184.05,.59,80.87,.96,74.38,1.19,77.01,1.24,75.10,1.17,76.39,1.01,75.46,.71,78.15,.64,76.16,.39,87.55,.17,73.57,.16,58.65,.03,90.00
2016.08.18-12:00,.23,200.39,.57,81.36,.95,73.95,1.18,76.92,1.23,75.61,1.15,76.87,1.00,74.75,.71,76.52,.65,76.03,.38,88.27,.16,73.80,.15,58.44,.02,90.00
2016.08.18-13:00,.24,222.87,.54,80.86,.94,73.83,1.16,76.57,1.22,76.09,1.13,77.32,.99,74.31,.70,75.62,.65,77.02,.36,90.10,.13,74.18,.12,56.90,.02,90.00
2016.08.18-14:00,.26,248.84,.51,78.84,.94,73.91,1.16,76.04,1.21,76.54,1.12,77.79,.98,74.30,.68,75.69,.64,79.21,.33,92.83,.09,73.95,.09,53.09,.01,90.00
2016.08.18-15:00,.31,274.21,.48,75.12,.94,74.03,1.15,75.52,1.20,77.04,1.10,78.34,.97,74.72,.67,76.59,.62,82.40,.31,95.84,.06,70.97,.06,45.29,.00,90.00
2016.08.18-16:00,.36,297.33,.47,70.21,.94,74.15,1.15,75.25,1.19,77.67,1.08,78.92,.96,75.35,.65,77.85,.61,86.02,.29,98.26,.03,60.19,.04,32.67,.00,270.00
2016.08.18-17:00,.39,320.39,.47,65.59,.95,74.48,1.16,75.50,1.19,78.45,1.07,79.43,.96,75.96,.65,78.92,.60,89.36,.28,99.12,.03,43.98,.03,23.07,.01,270.00
2016.08.18-18:00,.42,337.17,.49,62.52,.97,75.08,1.18,76.31,1.19,79.30,1.06,79.77,.97,76.43,.65,79.41,.59,91.84,.29,98.30,.04,42.67,.03,30.96,.00,270.00
2016.08.18-19:00,.45,350.25,.53,60.76,.98,75.57,1.19,77.36,1.18,79.95,1.06,79.78,.98,76.55,.66,78.92,.58,92.90,.30,96.44,.07,49.98,.05,47.15,.00,90.00
2016.08.18-20:00,.47,5.63,.57,60.57,.99,75.74,1.20,78.36,1.18,80.29,1.06,79.44,1.00,76.26,.68,77.41,.57,92.34,.33,94.40,.10,56.81,.07,57.41,.01,90.00
2016.08.18-21:00,.52,24.43,.64,63.01,1.00,75.92,1.20,79.25,1.18,80.46,1.06,78.91,1.01,75.81,.70,75.46,.56,90.42,.35,92.83,.13,61.58,.09,61.89,.01,90.00
2016.08.18-22:00,.58,42.67,.70,67.54,1.02,76.34,1.20,79.85,1.17,80.49,1.06,78.34,1.03,75.43,.73,73.77,.55,87.73,.36,92.03,.16,65.11,.11,63.33,.02,90.00
2016.08.18-23:00,.64,57.16,.75,72.59,1.03,76.87,1.19,79.85,1.16,80.25,1.06,77.71,1.03,75.23,.75,72.91,.54,85.00,.37,92.23,.16,68.19,.11,62.87,.02,90.00
2016.08.18-24:00,.68,67.48,.76,76.85,1.02,77.26,1.16,79.13,1.14,79.72,1.05,77.04,1.03,75.38,.76,73.31,.54,82.96,.36,93.57,.15,71.51,.10,60.56,.01,90.00
2016.08.19-01:00,.67,74.55,.73,79.74,1.00,77.46,1.14,77.89,1.13,79.01,1.03,76.40,1.02,76.03,.77,75.06,.53,82.00,.34,95.95,.13,75.63,.08,54.85,.00,90.00
2016.08.19-02:00,.61,79.55,.68,81.23,.98,77.61,1.13,76.62,1.11,78.33,1.02,75.80,1.01,77.14,.77,77.83,.53,82.08,.31,99.09,.09,81.95,.05,41.67,.00,270.00
2016.08.19-03:00,.54,82.88,.63,81.19,.97,77.67,1.13,75.61,1.11,77.59,1.02,75.05,1.00,78.38,.75,80.99,.52,82.88,.29,102.44,.07,93.25,.03,11.89,.01,270.00
2016.08.19-04:00,.48,84.66,.60,79.97,.98,77.77,1.15,75.24,1.12,76.84,1.03,74.25,.99,79.59,.73,84.09,.51,84.03,.27,104.93,.05,109.13,.03,333.34,.02,270.00
2016.08.19-05:00,.43,85.26,.59,78.35,1.00,78.03,1.19,75.73,1.13,76.20,1.05,73.63,.98,80.67,.71,86.58,.51,85.13,.27,105.44,.04,116.59,.03,328.46,.02,270.00
2016.08.19-06:00,.39,84.77,.60,76.67,1.02,78.32,1.22,76.90,1.15,75.59,1.08,73.26,.98,81.37,.69,87.78,.52,85.63,.28,103.69,.05,104.81,.03,.87,.01,270.00
2016.08.19-07:00,.35,83.87,.61,75.23,1.04,78.48,1.25,78.44,1.18,75.05,1.13,73.32,.99,81.57,.68,87.29,.54,85.23,.30,100.47,.07,88.89,.05,34.39,.00,270.00
2016.08.19-08:00,.29,82.92,.62,73.95,1.05,78.27,1.27,79.89,1.21,74.64,1.17,73.83,1.00,81.27,.69,85.35,.56,84.00,.33,96.95,.10,79.62,.08,49.02,.01,90.00
2016.08.19-09:00,.24,80.47,.64,73.05,1.06,77.67,1.27,80.85,1.25,74.49,1.22,74.77,1.01,80.55,.71,82.66,.60,82.30,.36,94.08,.13,75.21,.12,55.14,.02,90.00
2016.08.19-10:00,.23,78.04,.69,73.42,1.09,77.22,1.28,81.31,1.29,74.91,1.26,76.23,1.03,79.70,.73,80.11,.63,80.70,.38,92.22,.16,72.78,.15,57.43,.03,90.00
2016.08.19-11:00,.24,75.49,.73,74.38,1.11,76.94,1.26,81.14,1.31,75.56,1.27,77.70,1.02,78.67,.75,78.11,.65,79.48,.40,91.44,.17,71.67,.17,58.65,.03,90.00
2016.08.19-12:00,.22,71.69,.76,75.93,1.12,77.02,1.24,80.34,1.32,76.23,1.26,78.86,1.01,77.45,.76,76.89,.66,78.92,.39,91.81,.17,71.22,.17,59.03,.03,90.00
2016.08.19-13:00,.20,65.86,.77,77.81,1.12,77.49,1.21,78.97,1.31,76.75,1.22,79.53,.99,76.12,.76,76.61,.66,79.38,.37,93.49,.15,70.95,.16,58.44,.03,90.00
2016.08.19-14:00,.21,57.66,.76,79.19,1.11,78.10,1.20,77.40,1.30,77.15,1.19,79.82,.97,74.99,.74,77.27,.66,80.97,.35,96.41,.12,70.55,.13,56.86,.02,90.00
2016.08.19-15:00,.22,45.42,.73,79.40,1.10,78.67,1.20,76.22,1.29,77.68,1.16,80.10,.96,74.50,.72,78.82,.64,83.61,.31,99.92,.08,68.69,.10,53.58,.01,90.00
2016.08.19-16:00,.23,23.54,.69,77.96,1.08,79.01,1.21,75.71,1.28,78.41,1.14,80.50,.95,74.66,.70,80.89,.62,86.93,.29,103.05,.05,63.13,.06,47.64,.01,90.00
2016.08.19-17:00,.28,359.81,.67,75.37,1.07,79.20,1.23,76.06,1.28,79.32,1.13,81.03,.96,75.25,.68,82.92,.61,90.35,.27,104.45,.04,52.30,.04,39.34,.00,270.00
2016.08.19-18:00,.37,4.23,.67,72.81,1.08,79.37,1.26,77.18,1.28,80.33,1.13,81.61,.97,75.99,.67,84.30,.60,93.26,.27,103.34,.04,46.84,.04,36.44,.00,270.00
2016.08.19-19:00,.46,27.68,.70,70.90,1.10,79.36,1.28,78.55,1.29,81.19,1.14,81.95,1.00,76.48,.66,84.43,.58,95.10,.28,100.33,.07,51.61,.04,43.66,.00,90.00
2016.08.19-20:00,.53,36.63,.74,69.82,1.11,79.09,1.30,79.76,1.29,81.80,1.15,81.97,1.02,76.56,.67,83.06,.58,95.45,.30,96.91,.10,58.01,.06,50.70,.01,90.00
2016.08.19-21:00,.60,43.75,.79,70.22,1.13,78.82,1.30,80.65,1.30,82.20,1.15,81.67,1.04,76.19,.68,80.45,.57,94.18,.33,94.33,.13,62.98,.09,53.79,.01,90.00
2016.08.19-22:00,.67,53.02,.85,72.88,1.15,79.08,1.30,81.23,1.30,82.50,1.15,81.12,1.06,75.52,.71,77.34,.56,91.52,.36,92.97,.16,67.08,.11,54.86,.02,90.00
2016.08.19-23:00,.73,63.17,.91,77.14,1.17,79.95,1.30,81.36,1.29,82.59,1.14,80.32,1.08,74.75,.74,74.61,.56,88.07,.37,92.84,.18,71.07,.13,55.11,.02,90.00
2016.08.19-24:00,.79,72.80,.95,81.69,1.17,81.12,1.28,80.85,1.26,82.33,1.13,79.23,1.08,74.19,.76,73.19,.55,84.92,.37,93.97,.18,75.28,.13,54.26,.02,90.00
2016.08.20-01:00,.80,80.05,.95,85.29,1.16,82.12,1.25,79.67,1.23,81.60,1.10,77.89,1.08,74.12,.77,73.61,.55,83.08,.36,96.32,.16,80.03,.12,51.43,.02,90.00
2016.08.20-02:00,.76,85.57,.91,87.64,1.13,82.78,1.23,78.19,1.20,80.56,1.09,76.55,1.07,74.83,.77,75.79,.54,82.85,.33,99.64,.13,86.20,.10,44.90,.01,90.00
2016.08.20-03:00,.69,89.83,.85,88.70,1.10,83.04,1.22,76.88,1.18,79.43,1.08,75.48,1.07,76.26,.77,79.06,.54,83.88,.31,103.51,.09,96.68,.07,32.59,.00,270.00
2016.08.20-04:00,.61,92.78,.80,88.33,1.08,82.99,1.24,76.12,1.18,78.38,1.09,74.80,1.07,78.14,.75,82.64,.54,85.56,.28,107.20,.05,116.09,.05,14.53,.01,270.00
2016.08.20-05:00,.51,95.73,.77,87.05,1.09,82.97,1.27,76.16,1.19,77.59,1.12,74.60,1.07,80.18,.72,85.82,.53,87.26,.27,109.38,.04,138.87,.04,3.53,.01,270.00
2016.08.20-06:00,.47,94.59,.76,85.49,1.10,83.11,1.31,76.86,1.22,77.01,1.15,74.77,1.07,82.01,.69,87.82,.52,88.35,.26,108.93,.03,140.11,.04,15.48,.01,270.00
2016.08.20-07:00,.41,92.52,.75,83.84,1.11,83.28,1.34,78.02,1.25,76.64,1.19,75.26,1.08,83.43,.67,88.11,.53,88.38,.27,105.84,.03,109.27,.05,38.26,.00,90.00
2016.08.20-08:00,.31,90.77,.74,81.99,1.10,83.25,1.37,79.43,1.28,76.51,1.24,76.06,1.09,84.42,.68,86.83,.55,87.48,.30,101.37,.06,81.54,.08,50.93,.01,90.00
2016.08.20-09:00,.19,79.78,.72,79.47,1.08,82.46,1.37,80.53,1.31,76.35,1.27,76.84,1.11,84.86,.71,84.61,.59,86.10,.34,97.26,.09,70.41,.11,55.98,.02,90.00
2016.08.20-10:00,.15,50.11,.74,77.16,1.07,81.01,1.37,81.04,1.34,76.22,1.30,77.63,1.11,84.89,.74,82.38,.63,84.79,.37,94.58,.13,65.82,.14,57.34,.03,90.00
2016.08.20-11:00,.21,38.34,.80,77.20,1.10,79.96,1.37,81.22,1.38,76.50,1.33,78.74,1.11,84.86,.78,80.78,.66,83.83,.39,93.30,.15,63.23,.16,56.78,.03,90.00
2016.08.20-12:00,.29,38.45,.86,78.88,1.13,79.33,1.36,80.87,1.40,76.76,1.32,79.60,1.08,84.32,.78,79.34,.66,82.84,.40,93.31,.17,63.15,.17,57.04,.03,90.00
2016.08.20-13:00,.36,40.34,.90,81.27,1.14,79.06,1.34,80.05,1.39,76.85,1.29,80.06,1.02,83.05,.77,78.12,.65,82.01,.39,94.58,.17,64.70,.17,57.80,.03,90.00